| time (UTC) | temp F | wind direction | speed MPH | gust MPH | rain 1hr in | rain 24hr in | rain mn in | humidity % | barometer mb |
| 20260904005206 | 74 | 68 | 0.0 | 0.0 | 0.00 | 0.00 | 0.00 | 97 | 1020.9 |
| 20260904004701 | 74 | 198 | 0.0 | 0.0 | 0.00 | 0.00 | 0.00 | 96 | 1020.9 |
| 20260904004200 | 75 | 180 | 0.0 | 0.0 | 0.00 | 0.00 | 0.00 | 95 | 1020.8 |
| 20260904003650 | 75 | 242 | 0.0 | 0.0 | 0.00 | 0.00 | 0.00 | 95 | 1021.0 |
| 20260904003147 | 75 | 113 | 0.0 | 0.0 | 0.00 | 0.00 | 0.00 | 95 | 1020.8 |
| 20260904002643 | 76 | 263 | 0.0 | 0.0 | 0.00 | 0.00 | 0.00 | 94 | 1020.9 |
| 20260904002138 | 76 | 113 | 0.0 | 0.0 | 0.00 | 0.00 | 0.00 | 94 | 1020.8 |
| 20260904001632 | 77 | 193 | 0.0 | 0.0 | 0.00 | 0.00 | 0.00 | 93 | 1020.8 |
| 20260904001131 | 77 | 166 | 0.0 | 0.0 | 0.00 | 0.00 | 0.00 | 91 | 1020.8 |
| 20260904000627 | 77 | 93 | 0.0 | 0.0 | 0.00 | 0.00 | 0.00 | 92 | 1020.7 |
| 20260904000122 | 78 | 171 | 0.0 | 0.0 | 0.00 | 0.00 | 0.00 | 92 | 1020.9 |
| 20260903235622 | 78 | 64 | 0.0 | 0.0 | 0.00 | 0.00 | 0.00 | 90 | 1020.8 |
| 20260903235118 | 79 | 169 | 0.0 | 0.0 | 0.00 | 0.00 | 0.00 | 89 | 1020.7 |
| 20260903234612 | 80 | 67 | 0.0 | 0.0 | 0.00 | 0.00 | 0.00 | 86 | 1020.8 |
| 20260903234108 | 81 | 47 | 0.0 | 0.0 | 0.00 | 0.00 | 0.00 | 87 | 1020.9 |
| 20260903233605 | 81 | 30 | 0.0 | 2.0 | 0.00 | 0.00 | 0.00 | 83 | 1021.0 |
| 20260903233100 | 81 | 17 | 0.0 | 0.0 | 0.00 | 0.00 | 0.00 | 84 | 1020.8 |
| 20260903232555 | 82 | 13 | 0.0 | 0.0 | 0.00 | 0.00 | 0.00 | 83 | 1020.9 |
| 20260903232050 | 82 | 34 | 1.0 | 2.0 | 0.00 | 0.00 | 0.00 | 81 | 1020.7 |
| 20260903231544 | 82 | 33 | 2.0 | 3.0 | 0.00 | 0.00 | 0.00 | 82 | 1020.4 |
| 20260903231038 | 83 | 336 | 0.0 | 0.0 | 0.00 | 0.00 | 0.00 | 82 | 1020.5 |
| 20260903230535 | 83 | 33 | 0.0 | 0.0 | 0.00 | 0.00 | 0.00 | 79 | 1020.4 |
| 20260903230033 | 83 | 44 | 1.0 | 2.0 | 0.00 | 0.00 | 0.00 | 78 | 1020.0 |
| 20260903225531 | 84 | 24 | 0.0 | 2.0 | 0.00 | 0.00 | 0.00 | 78 | 1020.1 |
| 20260903225028 | 84 | 19 | 1.0 | 1.0 | 0.00 | 0.00 | 0.00 | 78 | 1020.0 |
| 20260903224523 | 85 | 14 | 0.0 | 0.0 | 0.00 | 0.00 | 0.00 | 76 | 1020.1 |
| 20260903224019 | 86 | 16 | 1.0 | 1.0 | 0.00 | 0.00 | 0.00 | 74 | 1019.8 |
| 20260903223519 | 86 | 4 | 1.0 | 1.0 | 0.00 | 0.00 | 0.00 | 72 | 1019.8 |
| 20260903223018 | 87 | 1 | 1.0 | 1.0 | 0.00 | 0.00 | 0.00 | 71 | 1019.6 |
| 20260903222513 | 87 | 350 | 0.0 | 0.0 | 0.00 | 0.00 | 0.00 | 73 | 1019.6 |
| 20260903222012 | 87 | 357 | 0.0 | 0.0 | 0.00 | 0.00 | 0.00 | 74 | 1019.6 |
| 20260903221508 | 87 | 325 | 0.0 | 0.0 | 0.00 | 0.00 | 0.00 | 75 | 1019.6 |
| 20260903221005 | 87 | 3 | 1.0 | 2.0 | 0.00 | 0.00 | 0.00 | 75 | 1019.7 |
| 20260903220459 | 86 | 333 | 0.0 | 0.0 | 0.00 | 0.00 | 0.00 | 77 | 1019.6 |
| 20260903215956 | 85 | 28 | 0.0 | 0.0 | 0.00 | 0.00 | 0.00 | 77 | 1019.4 |
| 20260903215453 | 85 | 48 | 2.0 | 3.0 | 0.00 | 0.00 | 0.00 | 76 | 1019.6 |
| 20260903214951 | 84 | 20 | 0.0 | 0.0 | 0.00 | 0.00 | 0.00 | 78 | 1019.7 |
| 20260903214447 | 84 | 32 | 1.0 | 2.0 | 0.00 | 0.00 | 0.00 | 77 | 1019.8 |
| 20260903213946 | 84 | 48 | 2.0 | 2.0 | 0.00 | 0.00 | 0.00 | 78 | 1019.6 |
| 20260903213442 | 84 | 38 | 0.0 | 1.0 | 0.00 | 0.00 | 0.00 | 77 | 1019.7 |
| 20260903212938 | 84 | 57 | 1.0 | 2.0 | 0.00 | 0.00 | 0.00 | 78 | 1019.6 |
| 20260903212434 | 83 | 60 | 2.0 | 3.0 | 0.00 | 0.00 | 0.00 | 78 | 1019.7 |
| 20260903211928 | 83 | 76 | 1.0 | 2.0 | 0.00 | 0.00 | 0.00 | 81 | 1019.4 |
| 20260903211424 | 83 | 70 | 1.0 | 3.0 | 0.00 | 0.00 | 0.00 | 79 | 1019.7 |
| 20260903210920 | 84 | 89 | 1.0 | 1.0 | 0.00 | 0.00 | 0.00 | 80 | 1019.6 |
| 20260903210419 | 85 | 114 | 0.0 | 1.0 | 0.00 | 0.00 | 0.00 | 79 | 1019.7 |
| 20260903205915 | 86 | 13 | 0.0 | 0.0 | 0.00 | 0.00 | 0.00 | 74 | 1019.6 |
| 20260903205415 | 86 | 37 | 1.0 | 2.0 | 0.00 | 0.00 | 0.00 | 74 | 1019.9 |
| 20260903204909 | 87 | 26 | 0.0 | 1.0 | 0.00 | 0.00 | 0.00 | 71 | 1019.6 |
| 20260903204405 | 88 | 13 | 0.0 | 1.0 | 0.00 | 0.00 | 0.00 | 68 | 1019.8 |
| 20260903203901 | 88 | 266 | 1.0 | 1.0 | 0.00 | 0.00 | 0.00 | 66 | 1019.9 |
| 20260903203356 | 87 | 10 | 0.0 | 2.0 | 0.00 | 0.00 | 0.00 | 70 | 1020.1 |
| 20260903202855 | 87 | 46 | 0.0 | 2.0 | 0.00 | 0.00 | 0.00 | 70 | 1020.5 |
| 20260903202352 | 87 | 22 | 0.0 | 2.0 | 0.00 | 0.00 | 0.00 | 69 | 1020.6 |
| 20260903201852 | 87 | 22 | 1.0 | 1.0 | 0.00 | 0.00 | 0.00 | 69 | 1020.7 |
| 20260903201347 | 86 | 357 | 0.0 | 1.0 | 0.00 | 0.00 | 0.00 | 71 | 1020.7 |
| 20260903200846 | 87 | 22 | 0.0 | 2.0 | 0.00 | 0.00 | 0.00 | 69 | 1020.6 |
| 20260903200341 | 86 | 352 | 1.0 | 2.0 | 0.00 | 0.00 | 0.00 | 71 | 1020.8 |
| 20260903195836 | 85 | 11 | 1.0 | 1.0 | 0.00 | 0.00 | 0.00 | 72 | 1020.7 |
| 20260903195333 | 85 | 3 | 1.0 | 2.0 | 0.00 | 0.00 | 0.00 | 73 | 1020.9 |
| 20260903194827 | 84 | 22 | 1.0 | 4.0 | 0.00 | 0.00 | 0.00 | 73 | 1021.1 |
| 20260903194322 | 83 | 15 | 2.0 | 3.0 | 0.00 | 0.00 | 0.00 | 74 | 1021.0 |
| 20260903193818 | 83 | 16 | 2.0 | 3.0 | 0.00 | 0.00 | 0.00 | 75 | 1021.2 |
| 20260903193314 | 84 | 24 | 3.0 | 4.0 | 0.00 | 0.00 | 0.00 | 73 | 1021.3 |
| 20260903192809 | 86 | 13 | 3.0 | 4.0 | 0.00 | 0.00 | 0.00 | 72 | 1021.4 |
| 20260903192306 | 87 | 352 | 1.0 | 2.0 | 0.00 | 0.00 | 0.00 | 70 | 1021.2 |
| 20260903191800 | 87 | 352 | 1.0 | 2.0 | 0.00 | 0.00 | 0.00 | 69 | 1021.2 |
| 20260903191256 | 88 | 351 | 3.0 | 3.0 | 0.00 | 0.00 | 0.00 | 69 | 1021.3 |
| 20260903190750 | 86 | 21 | 1.0 | 2.0 | 0.00 | 0.00 | 0.00 | 69 | 1021.5 |
| 20260903190245 | 85 | 13 | 0.0 | 0.0 | 0.00 | 0.00 | 0.00 | 72 | 1021.7 |
| 20260903185740 | 84 | 113 | 1.0 | 2.0 | 0.00 | 0.00 | 0.00 | 75 | 1021.6 |
| 20260903185239 | 84 | 18 | 0.0 | 0.0 | 0.00 | 0.00 | 0.00 | 73 | 1021.5 |
| 20260903184736 | 83 | 23 | 1.0 | 1.0 | 0.00 | 0.00 | 0.00 | 75 | 1021.9 |
| 20260903184231 | 83 | 340 | 0.0 | 0.0 | 0.00 | 0.00 | 0.00 | 77 | 1021.6 |
| 20260903183726 | 82 | 236 | 0.0 | 2.0 | 0.00 | 0.00 | 0.00 | 77 | 1021.9 |
| 20260903183221 | 82 | 352 | 0.0 | 2.0 | 0.00 | 0.00 | 0.00 | 77 | 1021.6 |
| 20260903182719 | 83 | 5 | 1.0 | 6.0 | 0.00 | 0.00 | 0.00 | 76 | 1021.6 |
| 20260903182215 | 83 | 17 | 3.0 | 4.0 | 0.00 | 0.00 | 0.00 | 74 | 1021.8 |
| 20260903181713 | 83 | 2 | 3.0 | 4.0 | 0.00 | 0.00 | 0.00 | 75 | 1021.7 |
| 20260903181208 | 84 | 15 | 5.0 | 7.0 | 0.00 | 0.00 | 0.00 | 73 | 1021.8 |
| 20260903180704 | 84 | 13 | 4.0 | 7.0 | 0.00 | 0.00 | 0.00 | 75 | 1022.2 |
| 20260903180158 | 83 | 27 | 5.0 | 6.0 | 0.00 | 0.00 | 0.00 | 75 | 1021.8 |
| 20260903175657 | 85 | 7 | 4.0 | 7.0 | 0.00 | 0.00 | 0.00 | 73 | 1022.1 |
| 20260903175156 | 84 | 10 | 2.0 | 6.0 | 0.00 | 0.00 | 0.00 | 74 | 1022.1 |
| 20260903174651 | 83 | 348 | 3.0 | 6.0 | 0.00 | 0.00 | 0.00 | 74 | 1021.9 |
| 20260903174146 | 83 | 10 | 4.0 | 6.0 | 0.00 | 0.00 | 0.00 | 73 | 1022.1 |
| 20260903173641 | 88 | 6 | 3.0 | 4.0 | 0.00 | 0.00 | 0.00 | 62 | 1022.3 |
| 20260903173137 | 90 | 50 | 0.0 | 3.0 | 0.00 | 0.00 | 0.00 | 58 | 1022.2 |
| 20260903172638 | 90 | 287 | 2.0 | 2.0 | 0.00 | 0.00 | 0.00 | 59 | 1022.1 |
| 20260903172133 | 89 | 91 | 2.0 | 3.0 | 0.00 | 0.00 | 0.00 | 57 | 1022.2 |
| 20260903171632 | 89 | 128 | 4.0 | 4.0 | 0.00 | 0.00 | 0.00 | 59 | 1021.9 |
| 20260903171128 | 88 | 212 | 4.0 | 10.0 | 0.00 | 0.00 | 0.00 | 57 | 1022.2 |
| 20260903170627 | 86 | 213 | 2.0 | 6.0 | 0.00 | 0.00 | 0.00 | 62 | 1022.3 |
| 20260903170123 | 87 | 320 | 0.0 | 2.0 | 0.00 | 0.00 | 0.00 | 60 | 1022.3 |
| 20260903165621 | 88 | 16 | 2.0 | 3.0 | 0.00 | 0.00 | 0.00 | 61 | 1022.2 |
| 20260903165115 | 90 | 269 | 0.0 | 3.0 | 0.00 | 0.00 | 0.00 | 57 | 1022.2 |
| 20260903164610 | 89 | 246 | 2.0 | 3.0 | 0.00 | 0.00 | 0.00 | 62 | 1022.3 |
| 20260903164107 | 88 | 284 | 2.0 | 3.0 | 0.00 | 0.00 | 0.00 | 61 | 1022.4 |
| 20260903163606 | 87 | 341 | 2.0 | 4.0 | 0.00 | 0.00 | 0.00 | 59 | 1022.5 |
| 20260903163102 | 87 | 239 | 2.0 | 3.0 | 0.00 | 0.00 | 0.00 | 65 | 1022.3 |
| 20260903162558 | 87 | 161 | 2.0 | 2.0 | 0.00 | 0.00 | 0.00 | 64 | 1022.5 |
| 20260903162054 | 88 | 242 | 2.0 | 3.0 | 0.00 | 0.00 | 0.00 | 60 | 1022.6 |
| 20260903161549 | 88 | 271 | 1.0 | 6.0 | 0.00 | 0.00 | 0.00 | 59 | 1022.4 |
| 20260903161045 | 88 | 124 | 3.0 | 9.0 | 0.00 | 0.00 | 0.00 | 59 | 1022.2 |
| 20260903160544 | 89 | 213 | 3.0 | 4.0 | 0.00 | 0.00 | 0.00 | 64 | 1022.6 |
| 20260903160039 | 88 | 190 | 4.0 | 7.0 | 0.00 | 0.00 | 0.00 | 59 | 1022.5 |
| 20260903155537 | 88 | 263 | 4.0 | 6.0 | 0.00 | 0.00 | 0.00 | 61 | 1022.7 |
| 20260903155033 | 88 | 207 | 2.0 | 6.0 | 0.00 | 0.00 | 0.00 | 62 | 1022.5 |
| 20260903154530 | 88 | 359 | 2.0 | 3.0 | 0.00 | 0.00 | 0.00 | 61 | 1022.5 |
| 20260903154026 | 87 | 264 | 3.0 | 6.0 | 0.00 | 0.00 | 0.00 | 64 | 1022.5 |
| 20260903153520 | 86 | 150 | 5.0 | 7.0 | 0.00 | 0.00 | 0.00 | 66 | 1022.3 |
| 20260903153016 | 87 | 194 | 1.0 | 6.0 | 0.00 | 0.00 | 0.00 | 62 | 1022.5 |
| 20260903152512 | 86 | 227 | 1.0 | 1.0 | 0.00 | 0.00 | 0.00 | 64 | 1022.6 |
| 20260903152008 | 86 | 79 | 1.0 | 2.0 | 0.00 | 0.00 | 0.00 | 70 | 1022.6 |
| 20260903151507 | 86 | 200 | 1.0 | 2.0 | 0.00 | 0.00 | 0.00 | 66 | 1022.7 |
| 20260903151002 | 85 | 216 | 1.0 | 4.0 | 0.00 | 0.00 | 0.00 | 74 | 1022.6 |
| 20260903150457 | 82 | 90 | 3.0 | 6.0 | 0.00 | 0.00 | 0.00 | 75 | 1022.6 |
| 20260903145952 | 84 | 82 | 3.0 | 4.0 | 0.00 | 0.00 | 0.00 | 76 | 1022.6 |
| 20260903145447 | 84 | 221 | 1.0 | 3.0 | 0.00 | 0.00 | 0.00 | 69 | 1022.4 |
| 20260903144942 | 83 | 278 | 2.0 | 3.0 | 0.00 | 0.00 | 0.00 | 76 | 1022.6 |
| 20260903144441 | 83 | 129 | 1.0 | 2.0 | 0.00 | 0.00 | 0.00 | 78 | 1022.5 |
| 20260903143937 | 83 | 95 | 0.0 | 2.0 | 0.00 | 0.00 | 0.00 | 78 | 1022.6 |
| 20260903143434 | 82 | 101 | 2.0 | 2.0 | 0.00 | 0.00 | 0.00 | 80 | 1022.5 |
| 20260903142929 | 82 | 23 | 0.0 | 0.0 | 0.00 | 0.00 | 0.00 | 80 | 1022.7 |
| 20260903142425 | 82 | 55 | 2.0 | 2.0 | 0.00 | 0.00 | 0.00 | 80 | 1022.7 |
| 20260903141921 | 81 | 67 | 0.0 | 1.0 | 0.00 | 0.00 | 0.00 | 82 | 1022.7 |
| 20260903141416 | 79 | 100 | 2.0 | 2.0 | 0.00 | 0.00 | 0.00 | 85 | 1022.6 |
| 20260903140912 | 79 | 275 | 0.0 | 1.0 | 0.00 | 0.00 | 0.00 | 86 | 1022.5 |
| 20260903140406 | 78 | 62 | 0.0 | 1.0 | 0.00 | 0.00 | 0.00 | 86 | 1022.8 |
| 20260903135901 | 78 | 58 | 0.0 | 0.0 | 0.00 | 0.00 | 0.00 | 88 | 1022.6 |
| 20260903135352 | 77 | 32 | 0.0 | 3.0 | 0.00 | 0.00 | 0.00 | 89 | 1022.5 |
| 20260903134850 | 77 | 77 | 1.0 | 2.0 | 0.00 | 0.00 | 0.00 | 89 | 1022.9 |
| 20260903134345 | 78 | 82 | 1.0 | 2.0 | 0.00 | 0.00 | 0.00 | 87 | 1022.9 |
| 20260903133843 | 79 | 15 | 0.0 | 0.0 | 0.00 | 0.00 | 0.00 | 84 | 1022.7 |
| 20260903133339 | 78 | 70 | 1.0 | 2.0 | 0.00 | 0.00 | 0.00 | 85 | 1022.8 |
| 20260903132834 | 79 | 245 | 0.0 | 0.0 | 0.00 | 0.00 | 0.00 | 83 | 1022.8 |
| 20260903132330 | 78 | 65 | 2.0 | 2.0 | 0.00 | 0.00 | 0.00 | 86 | 1022.9 |
| 20260903131825 | 77 | 169 | 0.0 | 0.0 | 0.00 | 0.00 | 0.00 | 86 | 1022.9 |
| 20260903131324 | 76 | 49 | 1.0 | 2.0 | 0.00 | 0.00 | 0.00 | 88 | 1023.0 |
| 20260903130823 | 76 | 240 | 1.0 | 2.0 | 0.00 | 0.00 | 0.00 | 87 | 1023.0 |
| 20260903130318 | 75 | 146 | 2.0 | 2.0 | 0.00 | 0.00 | 0.00 | 88 | 1022.8 |
| 20260903125817 | 76 | 197 | 2.0 | 3.0 | 0.00 | 0.00 | 0.00 | 90 | 1023.0 |
| 20260903125313 | 74 | 116 | 2.0 | 3.0 | 0.00 | 0.00 | 0.00 | 90 | 1023.2 |
| 20260903124812 | 74 | 207 | 1.0 | 2.0 | 0.00 | 0.00 | 0.00 | 93 | 1023.3 |
| 20260903124308 | 74 | 214 | 2.0 | 3.0 | 0.00 | 0.00 | 0.00 | 91 | 1023.1 |
| 20260903123806 | 73 | 223 | 0.0 | 2.0 | 0.00 | 0.00 | 0.00 | 92 | 1023.3 |
| 20260903123306 | 73 | 213 | 2.0 | 3.0 | 0.00 | 0.00 | 0.00 | 92 | 1023.4 |
| 20260903122804 | 72 | 214 | 1.0 | 3.0 | 0.00 | 0.00 | 0.00 | 92 | 1023.1 |
| 20260903122259 | 71 | 168 | 1.0 | 3.0 | 0.00 | 0.00 | 0.00 | 93 | 1023.2 |
| 20260903121757 | 70 | 189 | 0.0 | 0.0 | 0.00 | 0.00 | 0.00 | 96 | 1023.3 |
| 20260903121253 | 70 | 168 | 1.0 | 1.0 | 0.00 | 0.00 | 0.00 | 96 | 1023.4 |
| 20260903120749 | 69 | 238 | 0.0 | 2.0 | 0.00 | 0.00 | 0.00 | 97 | 1023.2 |
| 20260903120247 | 70 | 159 | 1.0 | 2.0 | 0.00 | 0.00 | 0.00 | 96 | 1023.0 |
| 20260903115747 | 69 | 106 | 0.0 | 0.0 | 0.00 | 0.00 | 0.00 | 96 | 1023.2 |
| 20260903115242 | 70 | 261 | 1.0 | 2.0 | 0.00 | 0.00 | 0.00 | 96 | 1023.2 |
| 20260903114741 | 69 | 105 | 1.0 | 1.0 | 0.00 | 0.00 | 0.00 | 97 | 1023.3 |
| 20260903114238 | 69 | 140 | 1.0 | 1.0 | 0.00 | 0.00 | 0.00 | 97 | 1023.3 |
| 20260903113732 | 69 | 109 | 0.0 | 2.0 | 0.00 | 0.00 | 0.00 | 96 | 1023.1 |
| 20260903113229 | 70 | 91 | 2.0 | 6.0 | 0.00 | 0.00 | 0.00 | 94 | 1023.1 |
| 20260903112724 | 69 | 118 | 0.0 | 2.0 | 0.00 | 0.00 | 0.00 | 96 | 1023.0 |
| 20260903112220 | 69 | 107 | 2.0 | 2.0 | 0.00 | 0.00 | 0.00 | 97 | 1022.9 |
| 20260903111719 | 69 | 351 | 0.0 | 2.0 | 0.00 | 0.00 | 0.00 | 97 | 1022.9 |
| 20260903111214 | 69 | 210 | 2.0 | 3.0 | 0.00 | 0.00 | 0.00 | 96 | 1022.8 |
| 20260903110710 | 69 | 235 | 1.0 | 3.0 | 0.00 | 0.00 | 0.00 | 97 | 1022.7 |
| 20260903110206 | 69 | 121 | 1.0 | 2.0 | 0.00 | 0.00 | 0.00 | 97 | 1022.6 |
| 20260903105705 | 69 | 245 | 2.0 | 3.0 | 0.00 | 0.00 | 0.00 | 96 | 1022.6 |
| 20260903105200 | 69 | 111 | 1.0 | 1.0 | 0.00 | 0.00 | 0.00 | 97 | 1022.6 |
| 20260903104700 | 69 | 343 | 0.0 | 0.0 | 0.00 | 0.00 | 0.00 | 96 | 1022.3 |
| 20260903104155 | 69 | 65 | 3.0 | 4.0 | 0.00 | 0.00 | 0.00 | 96 | 1022.5 |
| 20260903103651 | 69 | 280 | 0.0 | 1.0 | 0.00 | 0.00 | 0.00 | 95 | 1022.5 |
| 20260903103147 | 69 | 56 | 3.0 | 6.0 | 0.00 | 0.00 | 0.00 | 95 | 1022.3 |
| 20260903102642 | 69 | 235 | 0.0 | 2.0 | 0.00 | 0.00 | 0.00 | 96 | 1022.3 |
| 20260903102142 | 69 | 155 | 0.0 | 1.0 | 0.00 | 0.00 | 0.00 | 95 | 1022.2 |
| 20260903101641 | 70 | 100 | 0.0 | 2.0 | 0.00 | 0.00 | 0.00 | 94 | 1022.2 |
| 20260903101137 | 71 | 221 | 1.0 | 2.0 | 0.00 | 0.00 | 0.00 | 93 | 1022.1 |
| 20260903100632 | 69 | 109 | 3.0 | 4.0 | 0.00 | 0.00 | 0.00 | 94 | 1022.1 |
| 20260903100131 | 69 | 193 | 0.0 | 2.0 | 0.00 | 0.00 | 0.00 | 95 | 1021.9 |
| 20260903095629 | 69 | 226 | 3.0 | 4.0 | 0.00 | 0.00 | 0.00 | 95 | 1022.1 |
| 20260903095128 | 69 | 196 | 0.0 | 1.0 | 0.00 | 0.00 | 0.00 | 95 | 1021.9 |
| 20260903094623 | 70 | 173 | 1.0 | 2.0 | 0.00 | 0.00 | 0.00 | 94 | 1022.1 |
| 20260903094119 | 71 | 221 | 3.0 | 4.0 | 0.00 | 0.00 | 0.00 | 93 | 1021.8 |
| 20260903093614 | 69 | 71 | 4.0 | 4.0 | 0.00 | 0.00 | 0.00 | 96 | 1021.8 |
| 20260903093109 | 69 | 244 | 2.0 | 3.0 | 0.00 | 0.00 | 0.00 | 96 | 1021.8 |
| 20260903092608 | 68 | 249 | 1.0 | 2.0 | 0.00 | 0.00 | 0.00 | 97 | 1021.7 |
| 20260903092103 | 68 | 333 | 0.0 | 2.0 | 0.00 | 0.00 | 0.00 | 97 | 1021.9 |
| 20260903091601 | 68 | 62 | 1.0 | 2.0 | 0.00 | 0.00 | 0.00 | 96 | 1021.8 |
| 20260903091056 | 69 | 58 | 1.0 | 1.0 | 0.00 | 0.00 | 0.00 | 96 | 1021.7 |
| 20260903090552 | 68 | 42 | 0.0 | 0.0 | 0.00 | 0.00 | 0.00 | 97 | 1021.6 |
| 20260903090050 | 67 | 61 | 2.0 | 2.0 | 0.00 | 0.00 | 0.00 | 97 | 1021.6 |
| 20260903085544 | 68 | 52 | 1.0 | 1.0 | 0.00 | 0.00 | 0.00 | 97 | 1021.7 |
| 20260903085040 | 68 | 49 | 1.0 | 2.0 | 0.00 | 0.00 | 0.00 | 97 | 1021.6 |
| 20260903084538 | 68 | 175 | 0.0 | 2.0 | 0.00 | 0.00 | 0.00 | 96 | 1021.3 |
| 20260903084032 | 68 | 237 | 0.0 | 2.0 | 0.00 | 0.00 | 0.00 | 97 | 1021.7 |
| 20260903083528 | 68 | 331 | 2.0 | 2.0 | 0.00 | 0.00 | 0.00 | 96 | 1021.5 |
| 20260903083028 | 68 | 74 | 3.0 | 3.0 | 0.00 | 0.00 | 0.00 | 96 | 1021.4 |
| 20260903082522 | 69 | 283 | 2.0 | 3.0 | 0.00 | 0.00 | 0.00 | 94 | 1021.4 |
| 20260903082018 | 68 | 69 | 2.0 | 3.0 | 0.00 | 0.00 | 0.00 | 96 | 1021.4 |
| 20260903081514 | 69 | 47 | 1.0 | 4.0 | 0.00 | 0.00 | 0.00 | 95 | 1021.4 |
| 20260903081009 | 67 | 100 | 0.0 | 0.0 | 0.00 | 0.00 | 0.00 | 97 | 1021.4 |
| 20260903080505 | 67 | 332 | 0.0 | 0.0 | 0.00 | 0.00 | 0.00 | 97 | 1021.5 |
| 20260903080001 | 67 | 102 | 0.0 | 0.0 | 0.00 | 0.00 | 0.00 | 97 | 1021.5 |
| 20260903075455 | 68 | 275 | 0.0 | 0.0 | 0.00 | 0.00 | 0.00 | 97 | 1021.5 |
| 20260903074945 | 67 | 108 | 1.0 | 2.0 | 0.00 | 0.00 | 0.00 | 98 | 1021.7 |
| 20260903074444 | 68 | 294 | 0.0 | 1.0 | 0.00 | 0.00 | 0.00 | 97 | 1021.6 |
| 20260903073939 | 67 | 97 | 2.0 | 3.0 | 0.00 | 0.00 | 0.00 | 97 | 1021.6 |
| 20260903073434 | 67 | 56 | 2.0 | 3.0 | 0.00 | 0.00 | 0.00 | 97 | 1021.6 |
| 20260903072930 | 67 | 118 | 0.0 | 0.0 | 0.00 | 0.00 | 0.00 | 97 | 1021.5 |
| 20260903072426 | 68 | 263 | 0.0 | 0.0 | 0.00 | 0.00 | 0.00 | 96 | 1021.4 |
| 20260903071923 | 68 | 235 | 0.0 | 1.0 | 0.00 | 0.00 | 0.00 | 96 | 1021.5 |
| 20260903071418 | 68 | 78 | 2.0 | 2.0 | 0.00 | 0.00 | 0.00 | 96 | 1021.5 |
| 20260903070914 | 69 | 250 | 0.0 | 3.0 | 0.00 | 0.00 | 0.00 | 95 | 1021.8 |
| 20260903070408 | 68 | 35 | 3.0 | 3.0 | 0.00 | 0.00 | 0.00 | 96 | 1021.5 |
| 20260903065903 | 68 | 147 | 2.0 | 3.0 | 0.00 | 0.00 | 0.00 | 96 | 1021.7 |
| 20260903065402 | 68 | 206 | 2.0 | 3.0 | 0.00 | 0.00 | 0.00 | 97 | 1021.7 |
| 20260903064856 | 68 | 199 | 0.0 | 1.0 | 0.00 | 0.00 | 0.00 | 97 | 1021.7 |
| 20260903064352 | 68 | 190 | 2.0 | 4.0 | 0.00 | 0.00 | 0.00 | 97 | 1021.9 |
| 20260903063848 | 67 | 225 | 2.0 | 3.0 | 0.00 | 0.00 | 0.00 | 98 | 1022.1 |
| 20260903063342 | 67 | 258 | 1.0 | 3.0 | 0.00 | 0.00 | 0.00 | 99 | 1021.9 |
| 20260903062833 | 67 | 224 | 0.0 | 1.0 | 0.00 | 0.00 | 0.00 | 99 | 1022.1 |
| 20260903062332 | 67 | 131 | 0.0 | 0.0 | 0.00 | 0.00 | 0.00 | 99 | 1022.1 |
| 20260903061828 | 67 | 193 | 1.0 | 2.0 | 0.00 | 0.00 | 0.00 | 99 | 1022.2 |
| 20260903061327 | 67 | 144 | 0.0 | 1.0 | 0.00 | 0.00 | 0.00 | 99 | 1022.3 |
| 20260903060824 | 67 | 206 | 1.0 | 1.0 | 0.00 | 0.00 | 0.00 | 98 | 1022.5 |
| 20260903060322 | 68 | 201 | 0.0 | 1.0 | 0.00 | 0.00 | 0.00 | 97 | 1022.4 |
| 20260903055821 | 68 | 180 | 0.0 | 0.0 | 0.00 | 0.00 | 0.00 | 96 | 1022.6 |
| 20260903055314 | 69 | 250 | 0.0 | 0.0 | 0.00 | 0.00 | 0.00 | 96 | 1022.3 |
| 20260903054809 | 69 | 117 | 1.0 | 4.0 | 0.00 | 0.00 | 0.00 | 95 | 1022.5 |
| 20260903054308 | 68 | 96 | 3.0 | 3.0 | 0.00 | 0.00 | 0.00 | 97 | 1022.4 |
| 20260903053805 | 68 | 74 | 0.0 | 0.0 | 0.00 | 0.00 | 0.00 | 98 | 1022.5 |
| 20260903053301 | 68 | 104 | 0.0 | 0.0 | 0.00 | 0.00 | 0.00 | 98 | 1022.2 |
| 20260903052755 | 68 | 51 | 0.0 | 0.0 | 0.00 | 0.00 | 0.00 | 98 | 1022.3 |
| 20260903052251 | 68 | 52 | 0.0 | 0.0 | 0.00 | 0.00 | 0.00 | 98 | 1022.3 |
| 20260903051746 | 68 | 80 | 0.0 | 0.0 | 0.00 | 0.00 | 0.00 | 98 | 1022.3 |
| 20260903051242 | 68 | 121 | 0.0 | 0.0 | 0.00 | 0.00 | 0.00 | 98 | 1022.2 |
| 20260903050737 | 68 | 85 | 1.0 | 2.0 | 0.00 | 0.00 | 0.00 | 98 | 1022.3 |
| 20260903050237 | 68 | 91 | 0.0 | 0.0 | 0.00 | 0.00 | 0.00 | 98 | 1022.2 |
| 20260903045732 | 68 | 68 | 0.0 | 0.0 | 0.00 | 0.00 | 0.00 | 98 | 1022.4 |
| 20260903045228 | 68 | 64 | 0.0 | 1.0 | 0.00 | 0.00 | 0.00 | 97 | 1022.3 |
| 20260903044723 | 69 | 99 | 0.0 | 0.0 | 0.00 | 0.00 | 0.00 | 97 | 1022.2 |
| 20260903044218 | 69 | 115 | 0.0 | 0.0 | 0.00 | 0.00 | 0.00 | 96 | 1022.4 |
| 20260903043715 | 69 | 123 | 0.0 | 0.0 | 0.00 | 0.00 | 0.00 | 96 | 1022.5 |
| 20260903043214 | 70 | 146 | 0.0 | 0.0 | 0.00 | 0.00 | 0.00 | 96 | 1022.4 |
| 20260903042714 | 70 | 147 | 0.0 | 0.0 | 0.00 | 0.00 | 0.00 | 95 | 1022.6 |
| 20260903042208 | 70 | 277 | 1.0 | 2.0 | 0.00 | 0.00 | 0.00 | 95 | 1022.5 |
| 20260903041705 | 69 | 122 | 0.0 | 0.0 | 0.00 | 0.00 | 0.00 | 96 | 1022.6 |
| 20260903041201 | 69 | 206 | 0.0 | 0.0 | 0.00 | 0.00 | 0.00 | 97 | 1022.5 |
| 20260903040700 | 69 | 71 | 0.0 | 0.0 | 0.00 | 0.00 | 0.00 | 97 | 1022.6 |
| 20260903040155 | 70 | 80 | 0.0 | 0.0 | 0.00 | 0.00 | 0.00 | 96 | 1022.4 |
| 20260903035651 | 70 | 89 | 0.0 | 0.0 | 0.00 | 0.00 | 0.00 | 96 | 1022.4 |
| 20260903035148 | 69 | 83 | 0.0 | 0.0 | 0.00 | 0.00 | 0.00 | 97 | 1022.4 |
| 20260903034647 | 69 | 51 | 0.0 | 0.0 | 0.00 | 0.00 | 0.00 | 97 | 1022.4 |
| 20260903034142 | 70 | 74 | 0.0 | 0.0 | 0.00 | 0.00 | 0.00 | 97 | 1022.5 |
| 20260903033638 | 70 | 292 | 0.0 | 0.0 | 0.00 | 0.00 | 0.00 | 96 | 1022.7 |
| 20260903033138 | 70 | 41 | 0.0 | 0.0 | 0.00 | 0.00 | 0.00 | 96 | 1022.7 |
| 20260903032633 | 70 | 80 | 0.0 | 0.0 | 0.00 | 0.00 | 0.00 | 96 | 1022.4 |
| 20260903032128 | 70 | 245 | 0.0 | 0.0 | 0.00 | 0.00 | 0.00 | 95 | 1022.3 |
| 20260903031624 | 71 | 89 | 0.0 | 0.0 | 0.00 | 0.00 | 0.00 | 94 | 1022.2 |
| 20260903031118 | 71 | 221 | 0.0 | 0.0 | 0.00 | 0.00 | 0.00 | 94 | 1022.5 |
| 20260903030614 | 72 | 236 | 0.0 | 0.0 | 0.00 | 0.00 | 0.00 | 93 | 1022.4 |
| 20260903030104 | 72 | 151 | 0.0 | 0.0 | 0.00 | 0.00 | 0.00 | 93 | 1022.4 |
| 20260903025559 | 72 | 210 | 0.0 | 1.0 | 0.00 | 0.00 | 0.00 | 92 | 1022.6 |
| 20260903025055 | 72 | 212 | 0.0 | 1.0 | 0.00 | 0.00 | 0.00 | 93 | 1022.6 |
| 20260903024555 | 72 | 214 | 0.0 | 2.0 | 0.00 | 0.00 | 0.00 | 93 | 1022.7 |
| 20260903024049 | 73 | 211 | 0.0 | 2.0 | 0.00 | 0.00 | 0.00 | 91 | 1022.5 |
| 20260903023545 | 73 | 159 | 1.0 | 3.0 | 0.00 | 0.00 | 0.00 | 91 | 1022.7 |
| 20260903023040 | 73 | 135 | 0.0 | 0.0 | 0.00 | 0.00 | 0.00 | 92 | 1022.8 |
| 20260903022539 | 73 | 269 | 0.0 | 0.0 | 0.00 | 0.00 | 0.00 | 92 | 1022.7 |
| 20260903022038 | 72 | 129 | 0.0 | 0.0 | 0.00 | 0.00 | 0.00 | 93 | 1022.4 |
| 20260903021533 | 73 | 238 | 0.0 | 0.0 | 0.00 | 0.00 | 0.00 | 92 | 1022.4 |
| 20260903021028 | 73 | 80 | 0.0 | 0.0 | 0.00 | 0.00 | 0.00 | 92 | 1022.5 |
| 20260903020524 | 74 | 304 | 0.0 | 0.0 | 0.00 | 0.00 | 0.00 | 90 | 1022.4 |
| 20260903020023 | 74 | 93 | 0.0 | 0.0 | 0.00 | 0.00 | 0.00 | 90 | 1022.5 |
| 20260903015519 | 73 | 144 | 0.0 | 0.0 | 0.00 | 0.00 | 0.00 | 91 | 1022.5 |
| 20260903015014 | 72 | 113 | 0.0 | 0.0 | 0.00 | 0.00 | 0.00 | 93 | 1022.6 |
| 20260903014513 | 73 | 83 | 0.0 | 0.0 | 0.00 | 0.00 | 0.00 | 92 | 1022.6 |
| 20260903014008 | 73 | 250 | 0.0 | 0.0 | 0.00 | 0.00 | 0.00 | 92 | 1022.6 |
| 20260903013503 | 73 | 89 | 0.0 | 0.0 | 0.00 | 0.00 | 0.00 | 92 | 1022.5 |
| 20260903013003 | 73 | 164 | 0.0 | 0.0 | 0.00 | 0.00 | 0.00 | 92 | 1022.4 |
| 20260903012501 | 73 | 59 | 0.0 | 0.0 | 0.00 | 0.00 | 0.00 | 91 | 1022.6 |
| 20260903012000 | 73 | 111 | 0.0 | 0.0 | 0.00 | 0.00 | 0.00 | 91 | 1022.7 |
| 20260903011455 | 73 | 127 | 0.0 | 0.0 | 0.00 | 0.00 | 0.00 | 93 | 1022.5 |
| 20260903010950 | 73 | 43 | 0.0 | 0.0 | 0.00 | 0.00 | 0.00 | 92 | 1022.5 |
| 20260903010445 | 74 | 118 | 0.0 | 0.0 | 0.00 | 0.00 | 0.00 | 91 | 1022.5 |
| 20260903005942 | 74 | 87 | 0.0 | 0.0 | 0.00 | 0.00 | 0.00 | 90 | 1022.8 |